Location: Cercedilla
(40.7379°N, 4.0638°W)
Time: 04:31:12
(UTC+00:00)

Cosmos 1980 Rocket - Pass Details

Date: 07 June 2020
Orbit: 828 x 851 km, 71.0° (Epoch: 10 July)

Event Time Altitude Azimuth Distance (km) Brightness Sun altitude
Exits shadow 02:33:29 13° 270° (W) 2,243 4.1 -18.8°
Maximum altitude 02:36:37 20° 309° (NW) 1,870 4.0 -18.5°
Drops below altitude 10° 02:40:39 10° 355° (N) 2,466 5.3 -18.0°
Sets 02:43:49 0° 12° (NNE) 3,410 6.6 -17.7°
